Location: Pompeys Pillar
(45.9913°N, 107.9528°W)
Time: 03:54:54
(UTC+00:00)

Tiros 1 - Pass Details

Date: 01 June 2022
Orbit: 629 x 663 km, 48.4° (Epoch: 30 June)

Event Time Altitude Azimuth Distance (km) Brightness Sun altitude
Exits shadow 08:09:48 -1° 272° (W) 2,994 10.4 -20.6°
Rises 08:10:00 0° 272° (W) 2,914 10.4 -20.6°
Reaches altitude 10° 08:12:20 10° 275° (W) 2,009 9.6 -20.5°
Maximum altitude 08:16:56 64° 357° (N) 702 7.5 -20.2°
Drops below altitude 10° 08:21:33 10° 80° (E) 2,024 10.0 -20.0°
Sets 08:23:55 0° 84° (E) 2,938 10.9 -19.9°
